Temp
71 73 72 69 69 68 69 69 69 69 70 70 71 71 69 70 71 70 68 69 69 71
71 69 70 67 67 69 68 69 69 70 70 71 71 71 69 69 69 70 70 68 67 67
72 71 70 68 67 68 68 69 69 70 70 71 71 71 70 68 69 68 70 68 69 67
73 72 70 69 69 69 69 69 70 71 71 71 71 70 69 68 67 67 69 69 66 66
73 71 69 70 69 70 70 70 71 71 71 71 71 70 69 67 66 65 64 65 64 64
72 71 70 70 69 70 70 71 71 71 71 71 70 70 70 70 66 65 66 67 64 66
72 72 71 70 70 70 71 71 72 71 71 71 71 70 70 69 66 65 66 66 67 68
72 72 71 70 71 71 71 72 72 71 72 71 71 71 70 70 67 67 65 68 69 69
73 73 71 70 71 71 71 71 72 71 71 70 71 50 54 65 68 69 69 68 68 67
74 73 72 72 71 70 69 70 70 70 71 69 68 48 49 53 69 66 67 69 68 68
77 75 73 72 71 69 69 69 69 69 70 69 67 46 48 51 67 64 64 69 70 69
77 75 73 72 70 69 69 69 69 69 68 68 64 46 47 59 65 65 65 69 70 71
78 76 74 72 70 69 70 70 72 69 70 60 64 45 46 59 69 66 66 64 63 54
76 75 75 71 70 69 69 68 68 68 68 68 65 60 45 50 63 67 68 67 69 68
MSLP
1007.74 1007.92 1008.30 1008.58 1008.71 1008.93 1009.13 1009.40 1009.66 1009.69 1009.75 1009.69 1009.60 1009.61 1009.70 1009.59 1009.74 1009.96 1010.00 1009.91 1010.06 1010.02
1007.63 1008.05 1008.39 1008.74 1009.04 1009.14 1009.41 1009.50 1009.62 1009.63 1009.73 1009.67 1009.56 1009.56 1009.62 1009.66 1009.82 1009.86 1009.83 1009.99 1010.11 1010.25
1007.43 1007.99 1008.40 1008.72 1009.02 1009.21 1009.41 1009.50 1009.59 1009.64 1009.69 1009.61 1009.64 1009.64 1009.73 1009.86 1009.90 1009.96 1009.92 1010.05 1010.04 1010.31
1007.28 1007.82 1008.26 1008.55 1008.90 1009.14 1009.33 1009.46 1009.59 1009.61 1009.65 1009.59 1009.68 1009.83 1009.92 1009.94 1010.05 1010.06 1010.01 1010.26 1010.56 1010.69
1007.24 1007.73 1008.11 1008.39 1008.80 1009.06 1009.12 1009.35 1009.49 1009.55 1009.58 1009.66 1009.81 1010.03 1010.04 1010.17 1010.39 1010.41 1010.42 1010.74 1010.93 1011.05
1007.20 1007.53 1007.89 1008.32 1008.74 1008.95 1009.09 1009.24 1009.46 1009.54 1009.57 1009.76 1010.04 1010.19 1010.37 1010.39 1010.67 1010.66 1010.73 1010.82 1011.19 1011.26
1007.14 1007.45 1007.80 1008.33 1008.68 1008.89 1008.98 1009.19 1009.38 1009.58 1009.77 1010.05 1010.34 1010.57 1010.73 1010.90 1011.03 1011.08 1011.21 1011.26 1011.41 1011.61
1007.17 1007.57 1007.94 1008.44 1008.71 1008.87 1009.04 1009.27 1009.49 1009.72 1009.97 1010.34 1010.61 1010.85 1011.02 1011.22 1011.35 1011.37 1011.60 1011.64 1011.79 1012.01
1007.17 1007.55 1007.97 1008.48 1008.83 1009.07 1009.21 1009.44 1009.58 1009.85 1010.14 1010.60 1011.01 1011.53 1011.70 1011.64 1011.71 1011.67 1011.68 1011.86 1012.33 1012.78
1007.19 1007.50 1007.92 1008.36 1008.79 1009.20 1009.51 1009.71 1009.78 1010.05 1010.35 1010.76 1011.40 1012.01 1012.20 1012.17 1012.03 1012.19 1012.22 1012.24 1012.67 1012.96
1007.05 1007.47 1007.98 1008.36 1008.74 1009.24 1009.61 1009.83 1010.06 1010.29 1010.64 1011.03 1011.66 1012.27 1012.45 1012.53 1012.50 1012.65 1012.80 1012.77 1013.02 1013.33
1006.85 1007.44 1007.91 1008.31 1008.78 1009.24 1009.59 1009.98 1010.32 1010.57 1010.85 1011.26 1012.03 1012.57 1012.76 1012.71 1012.91 1012.92 1013.07 1013.21 1013.56 1013.88
1006.66 1007.18 1007.74 1008.23 1008.78 1009.28 1009.59 1009.95 1010.26 1010.78 1011.01 1011.56 1012.31 1012.86 1013.05 1012.90 1012.88 1013.08 1013.29 1014.02 1014.37 1014.61
1006.63 1007.02 1007.52 1008.24 1008.83 1009.23 1009.59 1010.01 1010.39 1010.92 1011.39 1011.75 1012.30 1012.96 1013.22 1013.33 1013.58 1013.48 1013.61 1014.13 1014.49 1015.19
Wind_Speed
5 3 2 3 3 4 4 5 5 5 4 4 4 4 4 5 4 3 3 5 4 3
5 4 3 5 4 4 6 5 5 4 4 4 4 2 4 3 4 4 4 3 4 2
6 5 5 6 6 6 6 5 5 4 3 3 3 3 4 3 3 3 3 2 3 3
6 6 6 5 6 6 5 5 4 3 4 4 5 4 4 4 3 3 3 3 4 5
6 7 6 6 5 6 6 5 4 4 5 5 5 5 5 5 5 4 5 6 7 8
6 6 6 6 6 6 6 6 5 5 5 6 6 6 5 6 6 4 5 7 7 8
5 5 6 7 7 7 7 7 6 6 6 6 6 6 6 8 6 6 7 7 7 9
6 6 8 7 7 8 8 7 7 7 7 6 5 5 7 8 7 7 8 7 8 7
8 7 8 8 7 7 8 7 7 7 7 7 5 7 7 7 7 7 8 9 9 11
8 8 9 8 8 7 6 6 6 6 6 6 7 6 8 4 7 6 6 9 9 9
9 8 9 8 7 6 6 6 6 6 6 5 5 6 7 5 6 6 5 9 10 10
10 9 8 8 7 6 7 7 4 5 7 7 6 5 9 8 5 7 7 8 11 11
11 10 9 9 7 5 6 7 5 5 6 8 8 5 5 5 7 8 8 8 5 6
9 9 10 9 6 7 7 7 6 6 5 7 9 7 5 5 5 6 8 8 8 6
Wind_Direction
148 139 105 109 107 121 149 148 130 132 135 143 159 180 183 168 161 173 199 198 192 205
154 145 135 112 132 144 142 137 129 130 136 170 175 179 152 126 140 193 209 186 163 179
159 161 140 136 154 158 143 140 137 139 160 158 141 131 113 112 133 174 175 176 141 137
164 165 146 146 155 157 147 140 149 156 169 164 131 121 114 102 117 150 148 117 120 150
156 160 157 156 158 159 145 144 154 162 156 151 126 116 115 105 122 133 125 109 109 122
151 157 160 153 159 152 141 140 149 153 147 133 118 111 97 96 86 102 114 118 123 126
143 132 142 149 155 152 137 139 140 138 133 123 117 109 115 109 103 98 100 101 113 126
125 117 124 137 146 139 130 130 132 136 132 124 120 121 124 110 107 107 106 108 104 111
131 129 129 132 134 133 131 137 132 136 137 133 115 123 114 122 121 113 117 115 107 113
143 138 135 136 136 137 138 143 143 134 135 134 126 145 129 127 125 115 123 118 121 112
154 143 139 143 137 141 143 147 127 126 131 128 119 133 135 142 114 110 119 125 126 125
161 155 153 147 140 138 145 141 138 116 128 133 126 145 149 151 127 124 135 123 126 131
173 171 170 157 147 136 142 138 141 125 130 124 128 156 157 181 140 139 123 105 98 116
174 177 174 155 151 145 140 133 131 125 122 134 138 161 173 144 119 135 132 141 147 126